FW7441 Weather Reports


Display with metric or nautical units.
time (UTC)temp
F
wind
direction
speed
MPH
gust
MPH
rain 1hr
in
rain 24hr
in
rain mn
in
humidity
%
barometer
mb
20260507010110 47 273 1.0 1.0 0.00 0.00 0.00 52 1014.2
20260507005608 47 238 1.0 1.0 0.00 0.00 0.00 52 1014.3
20260507005104 47 275 2.0 2.0 0.00 0.00 0.00 53 1014.2
20260507004601 48 260 0.0 0.0 0.00 0.00 0.00 52 1014.2
20260507004058 48 345 3.0 5.0 0.00 0.00 0.00 50 1014.0
20260507003554 48 293 2.0 5.0 0.00 0.00 0.00 52 1014.3
20260507003049 48 302 2.0 3.0 0.00 0.00 0.00 50 1014.3
20260507002546 49 290 1.0 1.0 0.00 0.00 0.00 50 1014.2
20260507002042 49 300 2.0 3.0 0.00 0.00 0.00 50 1013.9
20260507001539 49 298 2.0 3.0 0.00 0.00 0.00 49 1013.9
20260507001037 50 263 2.0 2.0 0.00 0.00 0.00 50 1013.9
20260507000532 50 291 1.0 2.0 0.00 0.00 0.00 51 1013.7
20260507000028 50 263 2.0 3.0 0.00 0.00 0.00 51 1013.7
20260506235526 50 269 1.0 1.0 0.00 0.00 0.00 52 1013.4
20260506235021 50 272 1.0 1.0 0.00 0.00 0.00 52 1013.6
20260506234519 51 2 6.0 7.0 0.00 0.00 0.00 49 1013.6
20260506234016 51 313 3.0 6.0 0.00 0.00 0.00 48 1013.6
20260506233512 52 268 1.0 2.0 0.00 0.00 0.00 51 1013.5
20260506233009 52 270 3.0 5.0 0.00 0.00 0.00 50 1013.7
20260506232505 52 325 4.0 5.0 0.00 0.00 0.00 47 1013.3
20260506231955 52 234 3.0 5.0 0.00 0.00 0.00 47 1013.4
20260506231453 52 256 3.0 3.0 0.00 0.00 0.00 48 1013.3
20260506230951 52 294 2.0 5.0 0.00 0.00 0.00 49 1013.4
20260506230446 52 310 4.0 5.0 0.00 0.00 0.00 47 1013.4
20260506225943 52 299 3.0 3.0 0.00 0.00 0.00 48 1013.3
20260506225441 52 261 1.0 1.0 0.00 0.00 0.00 48 1013.1
20260506224937 52 313 2.0 2.0 0.00 0.00 0.00 48 1013.2
20260506224434 53 249 3.0 6.0 0.00 0.00 0.00 48 1013.4
20260506223931 53 217 1.0 2.0 0.00 0.00 0.00 49 1013.3
20260506223426 53 325 3.0 3.0 0.00 0.00 0.00 48 1013.2
20260506222924 53 281 2.0 2.0 0.00 0.00 0.00 47 1013.1
20260506222420 53 304 3.0 5.0 0.00 0.00 0.00 47 1013.1
20260506221917 53 281 1.0 2.0 0.00 0.00 0.00 48 1013.2
20260506221414 53 93 1.0 1.0 0.00 0.00 0.00 47 1013.0
20260506220912 53 265 1.0 2.0 0.00 0.00 0.00 48 1012.9
20260506220407 53 216 1.0 1.0 0.00 0.00 0.00 47 1013.0
20260506215904 53 341 2.0 2.0 0.00 0.00 0.00 47 1012.9
20260506215400 53 348 3.0 3.0 0.00 0.00 0.00 48 1013.0
20260506214856 53 307 2.0 3.0 0.00 0.00 0.00 48 1012.6
20260506214353 54 309 3.0 3.0 0.00 0.00 0.00 45 1012.5
20260506213851 55 310 2.0 3.0 0.00 0.00 0.00 46 1012.5
20260506213348 54 341 1.0 2.0 0.00 0.00 0.00 46 1012.5
20260506212845 54 233 5.0 7.0 0.00 0.00 0.00 47 1012.6
20260506212341 54 257 2.0 3.0 0.00 0.00 0.00 46 1012.5
20260506211836 54 321 4.0 6.0 0.00 0.00 0.00 47 1012.8
20260506211332 55 239 3.0 6.0 0.00 0.00 0.00 47 1012.9
20260506210824 55 295 1.0 2.0 0.00 0.00 0.00 46 1012.8
20260506210321 55 308 4.0 6.0 0.00 0.00 0.00 44 1012.4
20260506205818 57 267 8.0 9.0 0.00 0.00 0.00 42 1012.4
20260506205314 57 317 3.0 5.0 0.00 0.00 0.00 44 1012.4
20260506204810 58 282 3.0 3.0 0.00 0.00 0.00 43 1012.4
20260506204308 57 259 1.0 2.0 0.00 0.00 0.00 44 1012.5
20260506203806 57 214 2.0 2.0 0.00 0.00 0.00 43 1012.4
20260506203303 55 330 2.0 2.0 0.00 0.00 0.00 46 1012.5
20260506202759 55 287 2.0 2.0 0.00 0.00 0.00 43 1012.8
20260506202257 56 232 1.0 1.0 0.00 0.00 0.00 42 1012.5
20260506201753 57 271 3.0 3.0 0.00 0.00 0.00 42 1012.4
20260506201250 58 242 1.0 2.0 0.00 0.00 0.00 41 1012.3
20260506200747 58 252 4.0 8.0 0.00 0.00 0.00 39 1012.6
20260506200243 57 232 2.0 2.0 0.00 0.00 0.00 43 1012.6
20260506195740 58 271 6.0 8.0 0.00 0.00 0.00 41 1013.1
20260506195236 58 260 6.0 8.0 0.00 0.00 0.00 40 1013.0
20260506194734 59 268 5.0 7.0 0.00 0.00 0.00 39 1013.0
20260506194230 56 239 4.0 6.0 0.00 0.00 0.00 42 1012.9
20260506193728 57 211 1.0 2.0 0.00 0.00 0.00 38 1013.0
20260506193225 59 308 5.0 7.0 0.00 0.00 0.00 40 1012.6
20260506192721 57 18 1.0 1.0 0.00 0.00 0.00 43 1012.9
20260506192218 56 215 3.0 5.0 0.00 0.00 0.00 40 1013.0
20260506191715 58 289 3.0 3.0 0.00 0.00 0.00 43 1013.0
20260506191210 57 227 1.0 2.0 0.00 0.00 0.00 42 1013.0
20260506190708 57 268 3.0 3.0 0.00 0.00 0.00 43 1013.1
20260506190204 58 210 3.0 3.0 0.00 0.00 0.00 42 1013.1
20260506185702 55 239 0.0 1.0 0.00 0.00 0.00 47 1013.1
20260506185158 55 252 2.0 3.0 0.00 0.00 0.00 43 1013.1
20260506184656 56 318 0.0 1.0 0.00 0.00 0.00 46 1013.4
20260506184153 55 242 3.0 5.0 0.00 0.00 0.00 43 1013.1
20260506183650 55 269 3.0 5.0 0.00 0.00 0.00 44 1013.1
20260506183145 55 281 2.0 3.0 0.00 0.00 0.00 44 1013.1
20260506182643 55 267 4.0 5.0 0.00 0.00 0.00 43 1013.1
20260506182139 55 307 7.0 9.0 0.00 0.00 0.00 44 1013.0
20260506181632 56 165 3.0 5.0 0.00 0.00 0.00 42 1013.1
20260506181129 56 327 6.0 8.0 0.00 0.00 0.00 44 1013.1
20260506180626 56 225 1.0 2.0 0.00 0.00 0.00 45 1012.9
20260506180122 56 278 2.0 2.0 0.00 0.00 0.00 43 1013.0
20260506175619 55 244 1.0 2.0 0.00 0.00 0.00 42 1013.1
20260506175114 55 285 3.0 6.0 0.00 0.00 0.00 43 1013.1
20260506174614 55 264 2.0 2.0 0.00 0.00 0.00 44 1013.3
20260506174110 56 309 2.0 3.0 0.00 0.00 0.00 42 1013.1
20260506173607 55 332 3.0 5.0 0.00 0.00 0.00 43 1013.1
20260506173104 55 320 2.0 3.0 0.00 0.00 0.00 43 1013.3
20260506172602 56 264 3.0 3.0 0.00 0.00 0.00 41 1013.1
20260506172057 56 286 4.0 5.0 0.00 0.00 0.00 44 1013.4
20260506171555 54 302 5.0 6.0 0.00 0.00 0.00 44 1013.2
20260506171052 54 241 1.0 2.0 0.00 0.00 0.00 41 1013.4
20260506170549 54 45 1.0 2.0 0.00 0.00 0.00 46 1013.4
20260506170047 55 321 3.0 3.0 0.00 0.00 0.00 46 1013.7
20260506165545 54 251 4.0 6.0 0.00 0.00 0.00 44 1013.5
20260506165041 55 301 6.0 8.0 0.00 0.00 0.00 45 1013.5
20260506164538 56 289 2.0 3.0 0.00 0.00 0.00 40 1013.4
20260506164036 55 265 2.0 2.0 0.00 0.00 0.00 47 1013.4
20260506163532 55 280 4.0 9.0 0.00 0.00 0.00 42 1013.5
20260506163027 55 262 2.0 2.0 0.00 0.00 0.00 43 1013.3
20260506162524 54 254 0.0 1.0 0.00 0.00 0.00 46 1013.3
20260506162021 55 245 2.0 2.0 0.00 0.00 0.00 44 1013.5
20260506161519 56 248 4.0 6.0 0.00 0.00 0.00 45 1013.5
20260506161015 56 243 3.0 6.0 0.00 0.00 0.00 45 1013.6
20260506160513 54 295 4.0 5.0 0.00 0.00 0.00 42 1013.8
20260506160010 55 256 1.0 1.0 0.00 0.00 0.00 45 1013.2
20260506155508 55 249 2.0 3.0 0.00 0.00 0.00 46 1013.5
20260506153640 53 228 2.0 2.0 0.00 0.00 0.00 52 1013.6
20260506153137 53 304 3.0 3.0 0.00 0.00 0.00 50 1013.5
20260506152634 53 164 1.0 2.0 0.00 0.00 0.00 50 1013.6
20260506152132 53 280 3.0 5.0 0.00 0.00 0.00 48 1013.6
20260506151630 53 306 2.0 3.0 0.00 0.00 0.00 53 1013.4
20260506151127 53 268 1.0 1.0 0.00 0.00 0.00 50 1013.7
20260506150624 53 242 3.0 5.0 0.00 0.00 0.00 48 1013.6
20260506150121 53 294 4.0 6.0 0.00 0.00 0.00 51 1013.6
20260506145618 53 229 3.0 6.0 0.00 0.00 0.00 47 1013.8
20260506145114 52 126 3.0 6.0 0.00 0.00 0.00 49 1013.6
20260506144612 53 240 3.0 5.0 0.00 0.00 0.00 48 1013.7
20260506144108 54 308 1.0 2.0 0.00 0.00 0.00 48 1013.6
20260506143606 53 106 1.0 2.0 0.00 0.00 0.00 48 1013.8
20260506143104 52 228 1.0 2.0 0.00 0.00 0.00 47 1013.5
20260506142602 52 202 1.0 1.0 0.00 0.00 0.00 49 1013.7
20260506142100 52 267 2.0 3.0 0.00 0.00 0.00 49 1013.6
20260506141557 51 235 3.0 5.0 0.00 0.00 0.00 51 1013.6
20260506141055 52 13 1.0 2.0 0.00 0.00 0.00 49 1013.5
20260506140553 53 333 0.0 1.0 0.00 0.00 0.00 48 1013.4
20260506140050 53 231 1.0 1.0 0.00 0.00 0.00 50 1013.7
20260506135546 51 197 1.0 2.0 0.00 0.00 0.00 48 1013.4
20260506135043 52 243 2.0 2.0 0.00 0.00 0.00 49 1013.4
20260506134539 51 227 1.0 2.0 0.00 0.00 0.00 49 1013.4
20260506134035 51 186 2.0 3.0 0.00 0.00 0.00 51 1013.2
20260506133533 50 119 0.0 1.0 0.00 0.00 0.00 53 1013.1
20260506133029 50 202 1.0 1.0 0.00 0.00 0.00 50 1013.0
20260506132526 51 247 2.0 3.0 0.00 0.00 0.00 50 1013.2
20260506132024 50 154 1.0 1.0 0.00 0.00 0.00 52 1013.2
20260506131521 50 244 2.0 2.0 0.00 0.00 0.00 55 1013.2
20260506131017 50 287 1.0 1.0 0.00 0.00 0.00 53 1012.9
20260506130514 50 159 0.0 0.0 0.00 0.00 0.00 52 1013.0
20260506130012 50 227 1.0 1.0 0.00 0.00 0.00 57 1012.8
20260506125510 49 148 0.0 0.0 0.00 0.00 0.00 60 1013.0
20260506125007 49 140 2.0 2.0 0.00 0.00 0.00 61 1012.8
20260506124505 48 167 0.0 0.0 0.00 0.00 0.00 62 1012.9
20260506124003 48 184 0.0 0.0 0.00 0.00 0.00 62 1012.6
20260506123500 48 184 0.0 0.0 0.00 0.00 0.00 64 1013.0
20260506122958 47 242 1.0 1.0 0.00 0.00 0.00 63 1012.5
20260506122455 47 165 0.0 0.0 0.00 0.00 0.00 64 1012.4
20260506121953 46 173 0.0 0.0 0.00 0.00 0.00 70 1012.3
20260506121449 45 184 0.0 1.0 0.00 0.00 0.00 75 1012.2
20260506120946 44 200 0.0 0.0 0.00 0.00 0.00 76 1012.3
20260506120444 43 212 1.0 1.0 0.00 0.00 0.00 77 1012.2
20260506115941 42 270 0.0 0.0 0.00 0.00 0.00 84 1012.3
20260506115439 41 273 0.0 0.0 0.00 0.00 0.00 87 1012.1
20260506114937 40 274 0.0 0.0 0.00 0.00 0.00 89 1012.2
20260506114434 39 274 0.0 0.0 0.00 0.00 0.00 90 1012.4
20260506113933 39 274 0.0 0.0 0.00 0.00 0.00 91 1012.1
20260506113430 38 274 0.0 1.0 0.00 0.00 0.00 91 1012.1
20260506112927 37 274 0.0 0.0 0.00 0.00 0.00 91 1012.2
20260506112425 37 275 0.0 1.0 0.00 0.00 0.00 92 1012.0
20260506111921 37 275 0.0 1.0 0.00 0.00 0.00 92 1012.1
20260506111419 36 275 0.0 1.0 0.00 0.00 0.00 92 1012.0
20260506110916 36 275 0.0 1.0 0.00 0.00 0.00 93 1012.2
20260506110414 35 275 1.0 1.0 0.00 0.00 0.00 93 1011.9
20260506105910 35 275 1.0 1.0 0.00 0.00 0.00 92 1012.1
20260506105407 35 275 1.0 1.0 0.00 0.00 0.00 92 1012.0
20260506104904 35 275 1.0 1.0 0.00 0.00 0.00 92 1011.9
20260506104402 35 276 1.0 2.0 0.00 0.00 0.00 92 1011.7
20260506103859 35 276 1.0 1.0 0.00 0.00 0.00 92 1011.7
20260506103357 35 273 1.0 1.0 0.00 0.00 0.00 92 1011.3
20260506102854 35 273 0.0 1.0 0.00 0.00 0.00 91 1011.2
20260506102352 36 274 1.0 1.0 0.00 0.00 0.00 91 1011.4
20260506101849 36 274 0.0 1.0 0.00 0.00 0.00 90 1011.2
20260506101345 36 274 1.0 1.0 0.00 0.00 0.00 90 1011.3
20260506100842 36 272 0.0 1.0 0.00 0.00 0.00 89 1011.1
20260506100341 36 279 0.0 0.0 0.00 0.00 0.00 89 1011.3
20260506095839 36 280 1.0 1.0 0.00 0.00 0.00 88 1011.5
20260506095336 37 279 1.0 1.0 0.00 0.00 0.00 87 1011.5
20260506094833 37 280 1.0 1.0 0.00 0.00 0.00 87 1011.3
20260506094332 37 280 1.0 1.0 0.00 0.00 0.00 87 1011.3
20260506093829 37 281 1.0 1.0 0.00 0.00 0.00 87 1011.5
20260506093326 37 282 1.0 1.0 0.00 0.00 0.00 87 1011.3
20260506092824 37 282 1.0 1.0 0.00 0.00 0.00 87 1011.0
20260506092321 37 282 1.0 2.0 0.00 0.00 0.00 87 1011.4
20260506091818 37 281 1.0 1.0 0.00 0.00 0.00 87 1011.4
20260506091316 36 281 1.0 1.0 0.00 0.00 0.00 87 1011.2
20260506090813 37 281 0.0 1.0 0.00 0.00 0.00 87 1011.5
20260506090310 37 282 1.0 1.0 0.00 0.00 0.00 87 1011.5
20260506085807 37 282 1.0 1.0 0.00 0.00 0.00 87 1011.4
20260506085305 37 280 1.0 1.0 0.00 0.00 0.00 87 1011.7
20260506084800 37 280 1.0 1.0 0.00 0.00 0.00 87 1011.5
20260506084256 37 278 1.0 1.0 0.00 0.00 0.00 87 1011.4
20260506083753 37 278 1.0 1.0 0.00 0.00 0.00 86 1011.3
20260506083251 37 278 1.0 1.0 0.00 0.00 0.00 85 1011.4
20260506082748 37 279 1.0 1.0 0.00 0.00 0.00 85 1011.4
20260506082243 37 279 1.0 1.0 0.00 0.00 0.00 84 1011.3
20260506081741 38 277 1.0 1.0 0.00 0.00 0.00 84 1011.4
20260506081238 38 277 1.0 1.0 0.00 0.00 0.00 83 1011.3
20260506080737 38 277 1.0 1.0 0.00 0.00 0.00 82 1011.2
20260506080233 39 283 1.0 1.0 0.00 0.00 0.00 81 1010.9
20260506073217 41 282 1.0 1.0 0.00 0.00 0.00 71 1011.0
20260506072714 42 279 1.0 1.0 0.00 0.00 0.00 71 1011.1
20260506072211 42 283 0.0 1.0 0.00 0.00 0.00 69 1010.9
20260506071708 42 282 1.0 1.0 0.00 0.00 0.00 68 1010.8
20260506071206 42 274 0.0 1.0 0.00 0.00 0.00 68 1010.9
20260506070703 42 274 0.0 0.0 0.00 0.00 0.00 68 1010.8
20260506070200 43 272 0.0 1.0 0.00 0.00 0.00 68 1010.7
20260506062137 44 356 0.0 0.0 0.00 0.00 0.00 62 1011.3
20260506061633 45 350 0.0 0.0 0.00 0.00 0.00 62 1011.2
20260506061131 45 350 0.0 0.0 0.00 0.00 0.00 60 1011.1
20260506060629 45 33 0.0 0.0 0.00 0.00 0.00 60 1011.0
20260506060126 45 63 2.0 3.0 0.00 0.00 0.00 60 1011.1
20260506051058 47 269 0.0 1.0 0.00 0.00 0.00 56 1010.6
20260506050555 47 0 1.0 2.0 0.00 0.00 0.00 54 1010.7
20260506045046 47 17 3.0 6.0 0.00 0.00 0.00 57 1010.8
20260506044544 46 343 0.0 0.0 0.00 0.00 0.00 62 1010.7
20260506044040 46 279 0.0 0.0 0.00 0.00 0.00 61 1010.9
20260506043537 46 272 0.0 0.0 0.00 0.00 0.00 61 1010.8
20260506043036 47 272 0.0 0.0 0.00 0.00 0.00 60 1010.9
20260506042535 47 272 0.0 0.0 0.00 0.00 0.00 58 1010.8
20260506042032 47 272 0.0 0.0 0.00 0.00 0.00 58 1010.9
20260506041531 48 268 0.0 0.0 0.00 0.00 0.00 58 1010.8
20260506041027 48 269 0.0 1.0 0.00 0.00 0.00 59 1010.5
20260506040525 48 265 0.0 1.0 0.00 0.00 0.00 58 1010.4
20260506040021 48 277 1.0 1.0 0.00 0.00 0.00 56 1010.4
20260506035518 48 259 0.0 0.0 0.00 0.00 0.00 56 1010.5
20260506035014 49 255 0.0 0.0 0.00 0.00 0.00 56 1010.6
20260506034512 49 255 0.0 0.0 0.00 0.00 0.00 56 1010.6
20260506034009 49 249 0.0 0.0 0.00 0.00 0.00 56 1010.3
20260506033506 50 315 1.0 1.0 0.00 0.00 0.00 54 1010.0
20260506033004 50 301 1.0 1.0 0.00 0.00 0.00 53 1009.9
20260506032500 50 278 0.0 1.0 0.00 0.00 0.00 52 1009.9
20260506031956 50 274 1.0 1.0 0.00 0.00 0.00 53 1010.0
20260506031455 50 281 0.0 0.0 0.00 0.00 0.00 53 1009.9
20260506030952 50 311 2.0 2.0 0.00 0.00 0.00 54 1010.0
20260506030449 50 324 0.0 0.0 0.00 0.00 0.00 54 1010.0
20260506025946 50 343 0.0 0.0 0.00 0.00 0.00 54 1010.2
20260506025443 50 301 1.0 1.0 0.00 0.00 0.00 53 1010.2
20260506024940 50 283 0.0 0.0 0.00 0.00 0.00 53 1010.1
20260506024437 50 298 0.0 1.0 0.00 0.00 0.00 53 1010.0
20260506023932 50 261 0.0 0.0 0.00 0.00 0.00 52 1009.9
20260506023429 48 318 0.0 1.0 0.00 0.00 0.00 59 1009.9
20260506022926 48 253 0.0 0.0 0.00 0.00 0.00 62 1009.9
20260506022424 48 253 0.0 0.0 0.00 0.00 0.00 64 1009.8
20260506021922 48 253 0.0 0.0 0.00 0.00 0.00 62 1009.5
20260506021419 48 253 0.0 0.0 0.00 0.00 0.00 65 1009.4
20260506020915 48 253 0.0 0.0 0.00 0.00 0.00 63 1009.5
20260506020414 49 253 0.0 0.0 0.00 0.00 0.00 63 1009.6
20260506015910 49 252 0.0 0.0 0.00 0.00 0.00 58 1009.3
20260506015408 49 253 0.0 0.0 0.00 0.00 0.00 58 1009.4
20260506014904 49 252 0.0 0.0 0.00 0.00 0.00 59 1009.0
20260506014401 49 253 0.0 0.0 0.00 0.00 0.00 59 1009.0
20260506013858 49 252 0.0 0.0 0.00 0.00 0.00 58 1008.8
20260506013356 50 253 0.0 0.0 0.00 0.00 0.00 58 1008.6
20260506012852 50 253 0.0 0.0 0.00 0.00 0.00 54 1008.5
20260506012349 50 252 0.0 0.0 0.00 0.00 0.00 53 1008.6
20260506011846 51 252 0.0 0.0 0.00 0.00 0.00 54 1008.9
20260506011343 51 252 0.0 0.0 0.00 0.00 0.00 51 1008.6
20260506010840 51 252 0.0 0.0 0.00 0.00 0.00 52 1008.4